User: anonymous   Login
Location: ?ejeti?ky
(50.4060°N, 14.9016°E)
Time: 02:43:12
(UTC+00:00)
Language:

Cosmos 1842 Rocket - Orbit

View from above orbital plane
View from above orbital plane
View from above satellite
View from above satellite

Ground track
Ground track

The orbit data is extracted from the following two-line orbital elements,

1 17912U 87038B   21337.41495949  .00000138  00000-0  13984-4 0  9998
2 17912  82.5002 320.5879 0018654 261.0805  98.8298 14.83112853848267
Epoch (UTC): 03 December 2021 09:57:32
Eccentricity: 0.0018654
inclination: 82.5002°
perigee height: 606 km
apogee height: 632 km
right ascension of ascending node: 320.5879°
argument of perigee: 261.0805°
revolutions per day: 14.83112853
mean anomaly at epoch: 98.8298°
orbit number at epoch: 84826

The dashed part of the orbit path shows where the satellite is in the earth's shadow,  

DLR